Flag for Russia Weather past 2 weeks in Barnaul, Russia

Now
61 °F

Passing clouds.


Feels Like: 61 °F
Forecast: 47 / 64 °F
Wind: 13 mph from West

Location: Barnaul Airport

Current Time: Apr 25, 2015 at 3:44:25 PM

Latest Report: Apr 25, 2015 at 3:00 PM


Visibility: N/A

Pressure: 29.92 "Hg

Humidity: 23%

Dew point: 23 °F

Location of BarnaulLocation

Historic Weather in Barnaul — Graph

°F

Barnaul temperature yesterday

Maximum temperature yesterday: 63 °F (at 12:00 AM)
Minimum temperature yesterday: 43 °F (at 11:00 PM)
Average temperature yesterday: 55 °F

Past Weeks' High & Low Weather Summary

 TemperatureHumidityPressure
High77 °F (Apr 22, 2:00 PM)100% (Apr 13, 12:00 AM)30.33 "Hg (Apr 13, 12:00 AM)
Low30 °F (Apr 15, 5:30 AM)21% (Apr 22, 3:00 PM)29.68 "Hg (Apr 23, 11:00 PM)
Average49 °F55%29.95 "Hg
* Reported Apr 10 2:00 PM — Apr 25 2:30 PM, Barnaul, Weather by CustomWeather, © 2015

Note: Actual official high and low records may vary slightly from our data, if they occured in-between our weather recording intervals... More about our weather records

Advertising

Barnaul weather history for previous 24 hours

 ConditionsComfort  
Time TempWeatherWind HumidityBarometerVisibility
2:30 PM
Sat, Apr 25
61 °FPassing clouds.15 mph25%29.95 "HgN/A
2:00 PM61 °FPassing clouds.15 mph25%29.95 "HgN/A
1:30 PM59 °FPassing clouds.15 mph25%29.98 "HgN/A
1:00 PM59 °FPassing clouds.15 mph27%29.98 "HgN/A
12:30 PM57 °FPassing clouds.13 mph29%30.01 "HgN/A
12:00 PM57 °FPassing clouds.13 mph29%30.01 "HgN/A
11:30 AM57 °FPassing clouds.13 mph31%30.01 "HgN/A
11:00 AM55 °FPassing clouds.10 mph31%30.04 "HgN/A
10:30 AM55 °FPassing clouds.10 mph31%30.04 "HgN/A
10:00 AM55 °FPassing clouds.10 mph33%30.04 "HgN/A
9:30 AM54 °FSunny.10 mph38%30.04 "Hg10 mi
9:00 AM52 °FPassing clouds.8 mph41%30.04 "HgN/A
8:30 AM50 °FSunny.8 mph50%30.04 "Hg10 mi
8:00 AM48 °FSunny.8 mph54%30.07 "Hg10 mi
7:00 AM43 °FSunny.8 mph61%30.04 "Hg10 mi
6:30 AM43 °FSunny.8 mph61%30.04 "Hg10 mi
6:00 AM41 °FSunny.8 mph66%30.04 "Hg10 mi
5:30 AM41 °FSunny.8 mph66%30.04 "Hg10 mi
5:00 AM39 °FClear.8 mph70%30.04 "Hg10 mi
4:30 AM41 °FClear.8 mph66%30.01 "Hg10 mi
3:30 AM41 °FClear.10 mph66%30.01 "Hg10 mi
3:00 AM43 °FClear.10 mph57%30.01 "Hg10 mi
2:30 AM43 °FClear.10 mph57%30.01 "Hg10 mi
2:00 AM43 °FClear.10 mph61%30.01 "Hg10 mi
1:30 AM43 °FClear.8 mph61%30.01 "Hg10 mi
1:00 AM43 °FClear.8 mph57%30.01 "Hg10 mi
12:30 AM45 °FClear.10 mph53%29.98 "Hg10 mi
12:00 AM43 °FClear.10 mph57%29.98 "Hg10 mi
11:30 PM
Fri, Apr 24
43 °FClear.10 mph61%29.95 "Hg10 mi
11:00 PM43 °FPassing clouds.10 mph61%29.95 "HgN/A
10:30 PM45 °FPassing clouds.10 mph57%29.92 "HgN/A
10:00 PM45 °FPassing clouds.10 mph61%29.92 "HgN/A
9:30 PM48 °FPassing clouds.10 mph76%29.89 "HgN/A
9:00 PM48 °FPassing clouds.8 mph94%29.89 "HgN/A
8:30 PM50 °FPassing clouds.8 mph88%29.86 "HgN/A
8:00 PM50 °FPassing clouds.13 mph94%29.86 "HgN/A
7:30 PM50 °FPartly sunny.13 mph94%29.83 "HgN/A
7:00 PM50 °FPartly sunny.10 mph94%29.83 "HgN/A
6:30 PM50 °FPartly sunny.10 mph94%29.83 "HgN/A
6:00 PM50 °FPartly sunny.10 mph94%29.83 "HgN/A
5:30 PM50 °FPartly sunny.10 mph94%29.80 "HgN/A
5:00 PM50 °FPartly sunny.10 mph88%29.80 "HgN/A
4:30 PM50 °FPartly sunny.8 mph88%29.80 "HgN/A
4:00 PM50 °FPartly sunny.6 mph88%29.80 "HgN/A
3:30 PM50 °FPartly sunny.6 mph88%29.80 "HgN/A
3:00 PM50 °FLight rain. Partly sunny.6 mph88%29.83 "HgN/A
Weather by CustomWeather, © 2015

See weather overviewHow to use our weather pages